This demonstration page uses our WeatherBlox Daily Observations layout. Learn more.

Left ArrowRight Arrow

39.01783, -85.05884

Hourly Observations for August 9, 2016

Temp ( °F °C ) Dew Point ( °F °C ) Humidity (%) Winds ( mph kmh ) Pressure ( in mb ) Visibility ( mi km ) Precip ( " mm )
12:52 am 00:52 Mostly Clear 76 24.4 70 21.1 82 82 E 7 11 29.96 1015 10 16 N/A
1:52 am 01:52 Clear 75 23.9 70 21.1 84 84 E 5 7 29.96 1015 9 14 N/A
2:52 am 02:52 Clear 74 23.3 70 21.1 88 88 E 6 9 29.96 1015 8 13 N/A
3:52 am 03:52 Mostly Clear 72 22.2 70 21.1 94 94 E 6 9 29.96 1015 8 13 N/A
4:52 am 04:52 Clear 72 22.2 70 21.1 94 94 E 6 9 29.95 1014 7 11 N/A
5:52 am 05:52 Mostly Clear 73 22.8 70 21.1 90 90 E 5 7 29.96 1015 7 11 N/A
6:52 am 06:52 Partly Cloudy with Mist and Fog 72 22.2 70 21.1 94 94 E 7 11 29.97 1015 5 8 N/A
7:52 am 07:52 Partly Cloudy with Mist and Fog 73 22.8 71 21.7 94 94 E 6 9 29.99 1016 6 10 N/A
8:52 am 08:52 Mostly Cloudy 75 23.9 72 22.2 90 90 SE 7 11 29.99 1016 8 13 N/A
9:52 am 09:52 Mostly Cloudy 77 25 72 22.2 85 85 E 6 9 30.00 1016 10 16 N/A
10:52 am 10:52 Mostly Cloudy 79 26.1 74 23.3 85 85 N N/A 30.00 1016 8 13 N/A
11:52 am 11:52 Mostly Cloudy 84 28.9 75 23.9 74 74 S 3 6 30.00 1016 9 14 N/A
12:52 pm 12:52 Mostly Cloudy 85 29.4 74 23.3 70 70 N N/A 29.99 1016 10 16 N/A
1:52 pm 13:52 Mostly Cloudy 87 30.6 75 23.9 67 67 VRB 5 7 29.98 1015 9 14 N/A
2:42 pm 14:42 Mostly Cloudy with Thunderstorms 84 29 75 24 74 74 S 9 15 29.94 1014 10 16 N/A
2:52 pm 14:52 Mostly Cloudy with Thunderstorms 83 28.3 75 23.9 77 77 SW 5 7 29.97 1015 8 13 N/A
3:19 pm 15:19 Cloudy 79 26 75 24 89 89 W 8 13 29.97 1015 8 13 N/A
3:52 pm 15:52 Cloudy 83 28.3 74 23.3 74 74 N N/A 29.96 1015 10 16 N/A
4:52 pm 16:52 Mostly Cloudy 85 29.4 74 23.3 70 70 N N/A 29.96 1015 10 16 N/A
5:52 pm 17:52 Mostly Cloudy 83 28.3 77 25 82 82 SSW 6 9 29.97 1015 9 14 N/A
6:52 pm 18:52 Mostly Cloudy 84 28.9 77 25 80 80 S 5 7 29.96 1015 10 16 N/A
7:52 pm 19:52 Cloudy 82 27.8 76 24.4 82 82 SE 15 24 29.98 1015 10 16 N/A
8:52 pm 20:52 Mostly Cloudy 79 26.1 75 23.9 88 88 SSE 3 6 30.00 1016 10 16 N/A
9:52 pm 21:52 Cloudy 79 26.1 73 22.8 82 82 SSE 6 9 30.01 1016 10 16 N/A
10:52 pm 22:52 Cloudy 78 25.6 73 22.8 85 85 S 6 9 30.01 1016 10 16 N/A
11:52 pm 23:52 Cloudy 75 23.9 73 22.8 94 94 S 3 6 30.02 1017 10 16 N/A

Powered by AerisWeather